Theta_e
304 303 303 303 303 302 303 303 303 303 303 303 303 303 303 303 303 303 303 303 304 303 304 304 303 303 304 303 305 306 305 306 307 307 306 304 305 305 305 305 305 305 305 305 306 308 308 308 309 308 308 309 311 312 313 313 316 320 322 324 325 329 325 317 314 314 318 320 318 316 318 323 321 317 316 317 317 316 315 312 310 308 307 307 308 309 310 310
303 303 302 302 301 302 303 302 303 303 303 303 303 303 303 304 304 304 303 304 304 304 304 303 303 303 303 304 305 305 305 306 308 307 306 305 305 305 305 305 305 305 305 305 307 308 307 308 307 307 309 311 313 312 314 314 315 323 323 322 326 327 317 311 311 312 313 315 316 316 317 321 321 318 317 320 320 317 320 316 311 311 307 307 307 307 308 308
302 302 302 302 302 303 303 303 303 303 303 304 304 305 305 305 305 305 305 304 304 304 304 304 303 303 303 304 304 305 305 307 308 307 306 305 305 305 305 305 305 305 305 305 307 308 307 308 306 307 308 311 313 313 315 314 316 323 320 322 328 321 311 308 310 310 310 311 314 315 316 317 317 316 316 321 321 319 323 319 316 316 309 307 307 307 308 307
302 302 302 302 302 303 303 304 303 303 304 305 306 307 307 307 306 306 305 305 304 304 304 304 303 303 304 303 304 305 305 309 308 305 305 305 305 305 305 305 305 305 305 305 307 308 307 307 306 307 307 311 315 313 315 316 316 320 319 324 324 314 312 310 307 308 309 310 312 314 314 314 312 313 314 317 322 323 320 316 317 317 310 307 307 308 308 308
302 302 302 302 302 303 303 303 303 304 305 306 307 307 307 307 307 306 305 305 304 304 304 303 303 303 303 303 305 304 307 313 309 304 305 305 305 305 305 305 305 305 305 306 307 307 307 307 306 307 308 311 314 313 316 317 315 317 317 317 313 311 313 309 306 308 309 311 313 314 314 312 311 312 311 313 321 322 313 309 313 314 309 308 307 308 309 308
303 302 303 303 303 303 303 303 303 304 305 306 307 307 307 306 307 306 304 304 304 304 304 303 303 303 303 303 304 304 310 314 307 304 306 305 305 305 305 306 305 305 306 306 307 307 307 307 306 308 309 309 312 311 314 314 312 316 314 310 309 310 310 307 307 308 310 312 312 312 311 310 311 311 310 311 313 311 305 305 310 311 308 308 308 308 308 309
303 303 303 303 303 303 303 303 303 304 306 306 307 306 306 306 306 306 304 304 304 304 304 303 303 303 303 302 303 308 312 309 304 304 305 304 305 305 305 306 305 306 306 306 306 307 307 307 307 308 308 309 312 310 311 311 312 317 313 309 308 309 308 306 307 308 310 310 309 309 308 308 311 310 308 310 307 303 303 303 306 308 308 308 308 308 308 309
303 303 303 303 303 303 303 303 303 305 307 307 307 306 306 306 305 305 304 304 304 304 303 303 303 303 303 304 309 314 310 305 304 305 305 305 305 305 305 305 305 306 306 306 306 306 306 307 307 307 308 309 311 312 313 312 314 315 311 308 307 307 308 307 308 308 308 308 307 308 308 308 309 307 307 309 304 302 303 302 304 307 308 308 308 309 308 308
303 303 303 304 303 303 303 303 303 305 307 306 306 305 305 305 304 305 304 304 304 303 303 303 303 304 305 307 313 315 307 304 305 305 304 305 305 305 305 304 306 306 306 306 306 306 306 306 306 306 307 307 309 314 315 313 314 313 310 308 308 307 307 307 308 307 307 307 307 307 308 307 306 306 308 307 302 301 303 303 305 306 308 309 309 308 308 308
304 304 304 304 304 304 303 303 303 305 307 306 305 304 304 304 304 304 304 304 303 303 304 305 305 306 307 309 313 312 306 304 305 304 305 305 306 306 305 305 306 306 306 306 305 306 305 305 306 305 306 307 310 313 315 314 312 310 310 310 308 307 307 307 307 307 307 306 306 306 306 307 305 306 308 304 300 301 303 303 304 306 307 308 308 308 308 307
304 304 304 304 304 304 303 303 303 306 307 306 305 304 303 304 304 304 304 304 304 305 306 307 307 307 307 307 309 308 304 305 305 304 305 305 306 306 306 305 306 306 306 306 306 305 306 306 305 307 309 310 310 312 313 312 310 309 311 310 308 307 306 306 306 306 306 305 305 304 304 306 304 306 310 303 300 302 302 303 303 304 306 306 307 307 305 305
304 304 304 304 304 304 304 303 303 306 306 306 305 303 303 304 303 303 303 303 305 307 307 307 306 307 308 306 305 305 304 305 304 304 305 305 306 306 306 306 306 306 307 306 306 306 307 307 307 309 310 311 313 313 311 309 308 309 309 311 309 306 306 306 305 305 305 304 304 304 305 309 307 307 308 302 300 301 302 303 303 303 304 305 306 306 302 301
303 304 304 304 304 304 304 303 304 307 306 307 306 304 304 304 304 304 303 304 306 306 306 306 306 307 311 308 304 305 305 305 304 304 305 305 306 307 306 306 306 306 307 306 307 307 307 307 307 310 312 313 315 313 310 308 308 309 309 310 309 309 311 307 304 305 304 305 305 304 308 313 311 308 304 299 300 302 302 302 303 304 304 304 303 304 302 299
303 303 303 304 304 304 303 303 305 307 307 308 307 304 304 305 305 305 305 306 306 306 306 306 307 308 311 308 304 305 305 304 304 304 305 305 306 307 306 306 306 306 307 306 307 306 307 307 307 310 311 312 313 311 310 309 308 310 310 313 312 312 316 309 304 306 304 304 305 305 308 310 309 307 302 298 300 302 303 302 302 304 304 303 302 302 302 300
302 302 302 303 303 303 303 303 306 307 308 309 307 305 305 305 305 305 306 306 306 307 306 308 310 311 311 306 304 306 305 304 304 304 304 304 305 305 306 306 306 307 307 307 307 307 307 307 308 311 310 312 313 313 315 313 310 310 312 320 319 313 315 311 305 307 305 304 304 305 309 309 307 308 302 298 300 302 304 303 302 303 304 303 302 301 301 300
302 302 302 302 302 302 303 304 306 307 308 309 307 305 305 305 305 305 306 306 307 308 309 311 310 313 313 306 304 306 304 303 304 303 304 304 304 305 305 306 307 307 307 307 307 307 307 308 310 311 310 311 312 314 319 319 318 317 314 318 318 311 312 312 309 308 306 306 304 304 307 308 306 307 303 299 300 302 303 303 302 303 303 303 302 300 300 300
302 302 302 302 302 302 303 305 307 307 307 307 307 307 307 307 307 308 307 306 307 308 309 309 307 310 311 306 304 305 303 304 303 303 303 304 305 305 305 305 306 306 306 307 307 307 306 307 311 311 309 306 308 314 319 319 322 321 315 314 313 308 307 310 313 309 306 307 307 306 306 305 304 305 303 299 300 301 301 302 302 302 303 303 302 301 300 300
302 302 302 302 302 302 304 306 307 307 306 306 307 308 308 308 308 308 308 307 308 311 310 308 309 314 313 306 304 304 303 303 303 303 303 304 305 305 305 305 305 305 306 308 307 306 307 309 312 313 310 304 307 315 316 313 313 313 311 311 311 309 307 309 312 308 305 307 307 306 306 304 302 302 303 301 299 300 301 300 301 302 302 303 302 301 300 299
301 302 302 302 303 303 305 306 307 306 305 307 307 307 307 308 309 307 306 307 310 314 313 309 310 315 312 305 303 303 303 303 303 302 302 304 305 305 306 305 304 306 310 312 310 309 312 315 315 314 311 306 306 309 310 307 307 308 308 308 308 310 310 309 311 309 305 305 306 305 304 303 301 300 302 302 300 299 300 300 300 301 301 302 302 301 301 300
301 302 302 303 303 303 306 306 306 306 307 309 310 310 313 316 316 311 308 308 309 310 310 309 307 307 306 304 303 303 303 304 303 301 302 304 304 305 307 305 306 311 313 312 310 310 313 316 313 309 307 305 305 306 306 307 308 308 308 309 309 309 309 307 308 309 305 305 309 307 305 303 301 300 300 301 301 299 299 299 299 300 301 301 302 302 301 301
304 304 303 304 303 304 306 305 306 308 309 311 311 314 317 317 315 311 309 309 307 306 307 307 305 304 304 304 303 303 303 305 302 301 302 303 304 306 307 308 311 314 311 311 313 311 314 315 308 305 304 304 306 308 307 308 309 309 308 310 309 307 306 305 305 308 306 304 307 306 305 303 301 301 300 301 302 301 299 299 299 299 300 300 301 302 301 301
305 305 305 305 303 303 305 305 306 307 308 307 308 314 316 313 311 311 310 309 307 306 307 305 304 303 303 303 303 303 302 303 303 302 301 303 306 307 310 312 311 310 309 314 318 314 313 310 305 305 306 306 310 309 308 309 308 309 308 306 306 306 306 306 307 309 306 303 305 305 303 302 300 300 300 300 302 301 300 299 300 299 299 300 300 301 301 301
305 305 305 304 303 303 304 305 305 306 306 305 309 314 311 310 310 310 312 312 310 308 307 306 304 303 303 303 303 304 302 301 303 302 301 303 306 307 311 313 312 311 311 314 318 317 313 306 303 306 307 307 309 310 311 309 307 308 308 305 306 306 303 305 307 305 302 301 303 303 302 301 300 302 305 306 302 301 301 300 299 300 300 300 300 300 300 301
304 305 305 304 303 302 304 305 305 305 305 306 313 312 307 309 310 310 313 314 312 310 307 306 303 302 303 302 302 304 303 301 302 302 301 303 305 307 309 311 314 315 312 313 315 315 311 304 303 307 308 307 306 309 310 306 305 309 309 305 305 305 301 302 304 302 302 305 304 303 304 305 305 307 313 312 305 301 302 301 300 300 300 300 300 300 300 300
304 305 305 303 303 303 303 304 304 306 306 308 312 308 305 308 307 308 312 315 316 312 308 307 305 303 302 302 302 303 304 302 301 301 301 302 304 308 307 307 312 314 312 312 312 310 307 303 304 306 307 307 306 307 306 303 304 307 307 304 302 302 302 303 304 303 304 307 306 304 306 311 310 308 307 307 307 305 303 303 302 300 300 300 300 300 299 300
305 305 305 303 304 303 303 306 307 308 310 311 310 307 306 307 307 308 312 317 319 315 310 308 307 305 303 303 303 305 307 305 302 301 302 302 302 306 309 310 310 311 311 310 309 308 306 303 303 304 305 306 307 305 305 305 302 302 304 304 303 302 302 304 304 303 305 305 303 302 305 309 308 304 303 304 307 307 305 304 304 301 301 301 300 300 300 299
306 306 304 303 304 304 307 312 312 311 314 314 311 307 305 306 308 310 313 318 318 314 311 309 307 305 304 303 304 304 304 304 303 302 302 303 302 304 310 312 311 309 308 310 312 309 307 304 303 306 305 305 307 305 306 305 300 302 304 303 304 303 302 303 301 302 305 304 303 303 303 305 306 306 305 306 308 309 308 305 305 303 301 301 300 299 299 299
306 306 304 304 304 305 308 310 310 312 315 314 310 307 306 307 309 313 319 321 315 311 309 309 306 304 305 306 306 305 302 303 305 303 303 303 302 307 311 310 310 310 308 313 316 309 305 306 306 307 306 306 307 304 305 303 299 305 307 303 304 303 302 302 301 303 304 303 305 306 303 305 310 308 305 306 307 309 311 309 307 306 303 301 300 300 299 299
305 306 305 304 304 305 307 308 310 312 311 308 307 306 306 308 312 318 322 318 314 312 308 307 305 303 308 310 309 308 305 305 306 303 304 304 302 307 309 307 309 311 309 312 315 308 305 306 306 307 305 306 307 305 306 303 301 305 305 303 304 303 303 302 301 304 302 302 308 307 303 303 307 306 303 304 306 311 314 312 309 308 305 302 300 300 299 298
304 306 304 304 306 306 306 307 308 310 307 304 306 307 307 313 319 322 318 312 314 314 310 309 304 304 311 314 312 311 308 307 307 306 308 307 305 307 305 304 309 311 308 309 310 308 306 305 304 306 307 307 305 304 306 304 303 303 304 306 305 303 303 303 303 302 301 307 311 305 302 301 303 306 304 304 309 315 313 308 307 307 307 306 303 300 300 299
303 305 304 305 308 308 309 310 306 305 306 305 306 308 311 318 323 322 313 309 314 315 310 310 308 307 312 312 310 311 309 309 309 308 309 310 310 310 306 304 308 312 311 310 309 305 306 307 305 305 305 303 302 304 307 306 304 304 305 305 304 305 305 304 304 301 303 314 311 302 301 301 302 305 304 306 309 309 306 303 303 303 306 312 311 305 302 300
303 304 304 305 306 306 310 312 305 303 306 305 307 314 319 321 319 317 312 309 315 315 309 309 309 307 309 310 308 308 308 307 308 308 307 310 311 308 306 303 304 309 310 310 308 306 308 309 306 305 303 301 302 305 307 307 306 304 304 303 307 310 308 309 309 305 308 313 304 298 300 300 301 301 301 302 302 302 302 301 302 303 306 310 311 310 308 304
304 303 303 304 304 303 306 307 304 305 306 305 311 321 324 322 317 312 311 309 310 310 308 309 310 306 307 310 309 307 305 303 306 308 306 309 310 307 306 304 302 304 303 304 304 305 311 309 303 304 303 301 302 302 303 303 303 302 300 303 309 306 301 307 310 305 306 308 301 297 298 300 301 303 305 303 301 303 305 305 308 308 308 306 306 310 312 309
305 304 303 303 303 303 305 304 305 306 305 309 322 326 320 315 312 307 308 310 309 309 309 309 309 308 306 306 305 305 305 304 305 307 308 309 308 309 309 307 305 304 303 305 302 301 306 309 306 305 303 302 302 303 303 301 301 303 301 301 307 304 300 305 308 304 305 308 304 298 300 306 305 306 312 308 304 307 308 310 311 307 306 306 305 307 309 310
308 307 305 304 303 304 304 304 305 305 306 316 327 326 319 312 308 308 310 310 309 311 310 307 307 311 309 306 306 304 303 304 305 306 308 307 304 307 307 305 305 305 305 306 303 302 304 306 305 302 301 301 302 303 303 300 300 303 300 300 305 307 304 304 305 304 301 303 305 302 304 310 307 303 306 304 303 305 305 306 305 303 306 306 306 308 309 312
311 310 307 304 303 304 303 305 306 305 312 326 326 322 320 312 308 313 313 308 308 311 312 309 308 312 311 308 309 306 301 303 306 305 306 304 304 305 304 304 304 303 305 306 303 303 305 305 304 301 300 300 300 302 302 300 299 299 300 302 303 302 300 300 303 304 300 300 303 302 304 308 305 302 304 303 304 305 305 305 302 303 307 306 308 312 313 313
312 311 307 303 303 304 304 305 305 306 317 328 324 318 316 309 306 311 311 307 307 308 310 311 309 309 308 306 308 307 302 304 305 304 304 305 305 307 307 304 301 300 302 304 304 303 302 305 304 301 301 300 298 300 302 301 299 298 300 302 301 298 298 300 301 303 303 302 302 301 304 307 304 303 306 305 304 306 306 304 302 304 306 306 309 311 312 312
310 309 307 305 303 303 305 305 305 310 319 323 318 312 310 308 306 307 309 308 307 307 309 311 309 307 305 305 306 304 302 305 306 304 305 305 303 306 310 305 301 300 300 300 304 303 301 303 304 300 302 302 299 299 302 301 298 299 300 299 299 299 301 301 301 303 302 301 304 304 304 306 305 305 307 304 303 305 304 301 301 303 302 303 306 307 309 309
308 313 313 306 302 304 305 304 306 315 320 320 319 312 308 309 307 305 307 307 307 307 307 308 308 306 304 305 306 303 302 305 305 303 305 304 301 304 307 305 302 301 300 300 303 302 300 302 303 300 299 300 299 299 304 305 299 299 300 299 299 300 303 303 301 304 303 300 304 303 301 306 309 308 306 303 302 303 301 300 300 301 300 301 304 304 305 305
308 317 315 303 302 305 304 305 316 324 320 315 316 312 310 311 308 304 305 306 307 306 305 307 307 305 305 305 305 303 303 306 305 304 304 303 302 303 303 304 304 301 300 300 301 301 300 300 304 303 299 299 300 301 305 308 305 302 301 300 299 298 302 302 300 302 303 301 302 301 300 306 308 305 302 301 302 301 301 301 301 301 301 302 302 302 302 301
309 318 314 304 302 304 306 312 317 321 317 311 311 310 310 310 308 306 305 305 306 304 304 309 309 307 306 305 305 303 304 307 306 304 305 304 302 302 302 303 306 303 300 300 300 301 301 300 304 305 301 302 303 301 301 304 306 305 304 305 303 301 303 302 300 301 301 300 304 302 299 302 303 302 301 301 302 302 301 301 300 301 301 301 301 300 300 300
314 317 311 304 301 303 315 319 312 316 319 312 309 309 308 309 309 308 306 305 306 304 304 307 308 307 306 305 306 305 304 306 306 306 307 306 304 303 303 303 305 303 302 303 303 301 301 300 301 303 301 301 300 297 297 301 302 301 302 304 302 302 304 302 303 305 302 300 304 302 299 300 300 301 302 301 301 300 300 299 298 299 299 299 299 299 299 300
319 316 306 303 302 306 316 316 311 319 318 307 306 307 306 308 309 307 306 306 307 305 305 307 306 304 305 306 306 304 303 305 308 309 307 307 306 303 304 305 304 301 301 302 302 300 299 300 301 303 304 301 298 295 295 297 299 298 300 302 300 303 305 303 304 306 304 303 303 301 300 300 299 299 299 299 299 298 299 298 297 297 297 297 298 297 298 298
318 312 308 305 302 306 313 315 317 319 311 304 307 306 304 306 307 306 307 308 308 305 305 306 305 304 305 305 304 304 303 303 306 308 305 305 304 301 302 305 302 299 300 301 301 299 300 303 302 303 305 303 302 302 300 299 298 299 301 302 300 302 302 301 301 301 302 303 301 300 301 300 299 299 298 298 299 298 297 297 297 296 296 296 296 296 297 297
313 310 311 308 305 307 312 318 325 323 311 308 310 308 305 306 306 306 307 308 306 305 305 304 304 305 305 304 304 305 304 302 303 305 303 303 303 300 301 303 301 301 302 301 300 299 301 304 301 301 303 302 302 306 305 303 301 301 302 301 299 300 300 300 301 301 301 302 301 301 301 299 298 299 298 299 299 297 297 297 297 296 296 296 296 296 296 296
312 311 313 312 313 315 312 312 319 322 317 312 309 308 309 309 307 305 305 307 306 303 303 303 303 303 303 303 305 307 307 304 302 303 304 305 306 302 300 300 301 302 302 300 299 299 301 303 300 300 303 301 301 302 302 300 300 300 301 300 300 300 300 300 300 300 301 300 300 300 300 298 298 298 298 298 297 297 297 296 296 296 296 296 296 295 295 295
311 314 316 312 311 314 311 309 314 317 316 314 308 306 309 310 308 305 303 305 305 304 303 304 302 301 303 305 306 308 308 306 304 304 304 306 306 301 297 297 299 300 300 298 298 298 300 301 300 300 300 300 299 299 299 299 299 298 300 300 300 299 300 300 299 299 300 301 299 299 298 298 298 298 297 297 297 296 296 295 295 295 295 294 294 294 294 294
309 313 314 308 309 313 308 308 314 314 310 310 308 306 308 310 309 309 306 303 303 303 303 304 305 304 307 309 307 307 308 306 307 308 305 304 304 301 299 297 297 297 298 298 297 297 299 302 302 300 299 299 298 297 298 298 298 298 299 299 299 299 300 300 299 298 299 299 299 298 298 298 298 297 297 297 297 296 295 295 294 294 293 293 293 293 293 293
309 312 308 304 311 314 307 307 313 313 310 309 308 307 309 313 314 312 308 304 304 305 302 305 310 309 309 309 306 307 309 306 305 307 306 305 303 302 304 303 297 295 296 297 296 297 300 303 303 301 299 299 298 299 299 298 298 298 298 298 297 297 298 298 299 298 298 298 298 298 298 298 297 297 297 297 296 295 294 294 293 293 293 293 293 293 292 291
312 314 309 307 310 308 304 307 310 312 309 306 307 308 309 314 316 312 307 306 309 308 302 304 312 313 310 308 306 307 311 309 303 303 305 305 303 303 306 306 303 297 295 297 297 296 298 302 301 300 300 299 299 300 298 297 297 297 297 297 297 297 298 298 298 298 298 299 299 298 298 299 298 296 295 295 294 293 293 293 293 292 293 293 292 291 291 291
305 307 308 313 315 305 303 308 309 311 311 306 306 307 307 312 316 312 309 308 311 313 307 307 314 313 307 307 308 307 308 309 307 307 307 305 304 304 302 302 305 303 297 296 298 297 297 300 302 301 300 299 298 299 298 297 298 299 299 299 299 298 298 297 297 298 299 299 300 299 299 298 296 294 293 293 293 293 293 292 292 292 292 292 291 290 290 290
301 302 306 314 315 306 305 308 304 307 313 312 309 308 307 312 315 311 307 308 310 312 310 310 312 308 307 310 310 305 304 304 304 306 307 305 303 302 300 300 305 308 301 297 298 299 297 299 301 300 300 301 298 297 298 297 299 302 301 300 299 297 295 295 295 296 296 297 298 299 297 295 294 293 293 293 293 292 292 292 292 292 291 290 290 290 290 290
Wind_Speed
1 2 1 3 3 4 5 5 5 5 6 6 7 8 9 9 10 10 10 9 8 7 6 6 4 2 2 3 2 4 4 1 4 8 8 10 18 19 18 16 14 14 14 12 7 8 10 5 5 7 6 3 2 2 3 4 2 4 2 2 3 3 3 2 1 2 1 1 3 5 3 5 3 1 2 3 7 6 7 6 5 8 8 7 7 12 24 26
1 2 2 3 5 5 5 6 5 6 6 7 7 8 8 9 9 9 9 8 7 6 5 5 3 3 3 3 4 3 2 1 4 8 10 17 21 18 15 13 12 12 12 8 4 6 7 4 6 5 2 1 1 2 2 2 2 3 2 2 3 4 2 1 1 3 2 1 3 2 1 4 5 4 4 2 3 5 5 3 3 6 6 7 9 13 19 23
1 2 4 5 5 5 5 4 5 5 5 5 5 5 6 6 6 6 6 7 6 5 4 4 2 3 3 4 4 3 2 2 1 4 12 20 19 14 13 11 9 10 9 5 3 6 7 8 11 6 1 2 3 1 2 1 1 2 3 2 5 4 3 1 3 3 3 3 2 1 2 4 2 3 3 3 6 4 4 4 3 4 4 6 7 10 14 17
2 3 4 5 6 5 5 5 6 6 5 4 4 4 5 5 5 4 4 4 5 4 3 2 2 3 4 4 4 4 2 3 1 4 14 19 16 12 9 9 9 8 8 5 4 5 8 10 11 4 1 2 3 0 2 3 2 2 4 4 5 4 3 2 2 2 5 4 1 3 3 3 0 0 1 4 6 4 4 3 3 7 9 9 8 10 12 12
3 4 5 5 6 6 6 6 6 5 3 3 4 5 6 6 5 4 3 2 3 4 2 2 3 3 5 4 5 4 2 3 2 8 17 19 15 9 8 9 9 8 8 7 5 6 8 9 6 3 0 2 3 2 3 6 4 1 3 5 1 2 3 3 2 3 4 2 2 3 3 1 1 1 3 5 4 5 4 2 3 8 11 11 11 12 13 12
4 4 5 5 6 7 7 7 7 6 4 4 5 6 7 7 6 4 2 1 2 4 3 3 4 4 5 4 5 3 3 2 4 12 17 18 13 9 9 9 9 10 10 9 8 7 7 5 2 1 0 2 3 3 5 5 5 3 2 3 3 3 4 2 3 4 4 5 4 2 1 0 1 0 2 3 4 4 3 3 1 10 12 14 14 12 12 12
3 4 5 6 7 7 8 8 8 7 6 7 7 8 8 7 6 4 3 1 4 6 4 4 4 4 4 4 4 1 3 1 8 13 16 17 12 11 11 8 8 11 12 11 9 6 4 3 1 3 1 2 4 4 5 3 3 4 0 2 3 5 5 1 1 3 5 6 1 1 1 2 1 1 2 0 4 4 3 3 6 11 14 16 13 11 11 12
3 4 5 6 7 7 8 8 8 8 8 8 8 8 8 7 5 4 3 3 6 7 5 5 5 4 5 5 4 2 2 3 10 13 15 15 12 13 12 8 8 12 13 9 7 6 4 5 4 1 1 3 2 1 4 5 4 3 1 0 2 3 3 3 3 5 5 3 2 3 2 1 3 3 2 4 7 5 4 5 6 9 12 12 10 10 10 11
2 3 4 5 6 7 8 9 9 8 8 8 8 7 6 6 4 3 3 6 8 7 6 5 5 5 6 4 3 3 2 6 10 12 15 14 11 15 13 9 10 12 14 9 6 9 5 3 4 2 1 4 2 3 4 5 3 1 2 1 3 2 2 3 3 4 2 1 3 4 2 4 4 3 3 4 8 6 5 6 4 6 8 8 8 10 11 11
1 2 3 4 6 7 8 9 8 8 8 7 7 6 6 6 5 4 6 8 7 6 5 5 6 5 2 1 4 3 4 8 9 12 15 13 10 13 13 11 11 13 15 10 9 9 4 1 4 2 1 2 2 3 3 3 1 1 4 3 4 4 2 2 2 1 1 2 3 3 4 4 1 1 3 2 7 7 6 6 5 6 7 7 6 8 10 12
1 2 3 4 5 6 7 7 7 7 7 6 6 7 6 6 6 7 7 8 6 6 7 8 7 5 5 5 5 3 6 8 9 12 14 12 9 11 11 12 11 12 13 10 9 8 5 4 6 3 1 1 2 4 2 1 1 3 5 3 1 3 1 2 3 1 1 1 3 2 4 4 1 1 5 5 7 8 8 7 6 6 6 6 6 6 8 10
2 2 2 3 4 5 6 6 6 6 5 5 6 6 6 6 6 7 8 7 6 7 9 8 4 3 6 8 4 1 6 9 10 13 12 10 9 8 8 11 10 9 10 8 7 7 5 7 8 4 0 0 1 3 1 2 1 3 4 2 3 3 2 2 1 1 2 1 3 2 4 5 2 5 5 6 7 7 7 7 7 7 7 6 7 6 6 8
3 3 3 3 4 4 5 6 5 5 4 4 5 6 6 6 6 7 7 7 6 7 7 3 2 4 5 4 2 3 7 10 12 14 13 12 9 5 5 8 8 7 7 6 6 6 5 8 6 3 1 2 1 1 0 2 2 1 1 2 2 5 4 5 1 1 2 1 3 3 3 6 6 8 4 6 7 7 6 7 7 7 6 6 7 6 6 9
4 4 4 4 4 4 5 5 4 3 4 5 6 6 7 9 10 10 9 8 6 5 2 1 3 4 5 1 0 6 8 9 13 16 15 15 12 5 4 5 6 6 6 5 6 6 6 8 5 3 2 3 1 1 3 3 2 1 2 1 1 1 4 6 3 2 2 2 2 5 2 7 8 8 5 7 7 9 8 8 8 7 7 7 7 7 7 10
4 4 4 4 4 4 4 4 3 4 5 6 7 7 8 11 12 12 11 8 6 4 2 3 3 2 4 1 2 4 9 11 15 16 14 17 15 7 7 8 6 6 5 6 6 6 7 7 3 3 2 3 3 3 3 4 3 2 1 3 3 1 4 7 4 2 2 4 1 4 3 7 7 7 7 7 7 9 8 8 9 9 9 8 8 8 7 9
4 5 4 3 3 4 3 3 3 5 6 7 9 9 9 9 8 8 7 5 4 4 5 5 5 1 4 1 1 4 9 11 14 14 13 15 11 7 11 11 7 6 6 7 7 6 7 4 2 3 3 5 4 3 3 4 4 3 2 2 4 2 2 5 4 3 2 3 2 1 4 6 6 6 6 7 8 9 9 9 10 10 10 10 8 8 8 8
3 5 5 4 3 3 3 3 3 6 9 10 12 12 11 8 5 4 6 5 4 4 6 7 6 5 3 3 2 3 8 10 11 13 15 13 5 6 11 7 5 9 8 8 7 5 4 2 2 3 4 4 3 3 4 4 3 4 3 1 4 2 2 4 4 5 4 2 3 3 5 9 10 7 6 8 10 10 10 10 10 10 10 9 8 8 8 9
3 3 4 3 1 2 2 2 6 9 10 12 13 14 15 13 10 8 7 5 1 3 4 7 8 5 2 4 2 5 10 10 9 15 18 11 4 7 9 4 5 10 9 5 3 2 2 2 3 3 4 5 5 6 3 2 2 2 3 2 4 4 2 4 4 3 5 3 4 5 7 12 13 9 7 9 9 10 12 11 9 9 9 9 9 8 9 9
3 3 3 3 2 1 1 4 8 10 11 11 12 13 12 12 12 12 15 12 4 2 1 4 4 3 2 3 3 9 12 8 6 16 21 15 10 10 7 4 4 4 5 3 3 3 2 4 5 4 3 4 4 4 4 4 3 4 4 2 4 6 4 5 5 3 2 4 6 6 7 11 14 12 9 8 9 11 12 10 8 8 8 8 8 9 9 10
4 4 3 4 2 2 2 7 11 12 11 9 7 6 4 4 5 6 12 12 4 3 3 3 2 2 1 3 6 12 9 3 3 16 24 18 12 9 6 3 1 4 4 0 2 3 5 5 4 2 2 2 2 1 2 2 2 2 3 3 4 5 5 5 4 4 2 3 6 6 7 13 15 15 12 8 8 11 12 10 9 8 8 8 9 10 11 11
7 6 5 4 2 5 6 11 15 13 10 7 5 3 1 1 2 1 2 5 4 3 2 1 2 4 1 3 6 11 4 1 5 15 25 18 7 4 5 4 4 5 4 1 1 4 6 5 1 2 4 2 4 5 2 2 3 3 2 4 5 4 5 6 4 5 1 3 6 5 8 15 16 15 13 7 7 11 13 12 11 11 10 8 9 11 11 10
8 7 6 4 3 6 8 13 14 10 6 5 5 3 1 2 3 5 4 3 3 6 5 4 4 3 3 2 7 8 3 3 7 12 23 19 7 3 3 4 6 3 5 4 3 5 6 2 3 3 1 2 4 3 2 3 3 3 2 2 4 4 4 6 4 3 2 2 6 6 7 15 18 15 13 9 9 10 12 14 13 12 11 9 10 10 9 8
9 8 7 4 2 7 10 12 12 8 3 3 5 4 2 4 6 7 5 4 1 4 4 4 3 3 5 4 9 9 5 5 4 8 18 15 5 3 3 5 6 3 5 5 3 4 2 3 4 3 2 4 5 3 6 5 3 2 1 1 4 3 2 4 5 6 6 4 6 7 7 12 15 12 11 8 8 8 8 11 11 9 10 11 11 10 9 10
9 7 6 4 3 8 10 12 10 7 4 2 4 3 3 7 7 5 3 3 0 2 1 1 1 1 2 2 8 6 3 3 1 6 13 9 2 3 3 2 5 5 4 4 6 6 2 6 3 2 3 1 2 5 6 5 4 3 2 2 3 3 1 4 6 8 8 5 4 5 6 7 7 7 8 6 3 6 5 7 9 8 9 9 9 9 10 11
9 6 5 4 4 7 9 9 8 6 4 3 2 1 5 7 4 2 2 3 1 3 2 2 1 1 2 3 7 2 3 2 1 5 8 7 3 2 2 0 3 3 3 4 7 5 1 5 1 3 4 2 2 3 2 3 3 5 3 4 4 3 3 5 6 7 6 5 2 3 5 6 6 6 9 7 5 6 3 5 9 9 8 7 8 9 10 10
10 5 4 3 4 8 7 4 4 5 4 4 4 4 6 6 1 3 3 3 3 3 2 1 1 3 4 5 6 1 3 3 3 4 6 5 3 2 2 3 2 1 1 3 4 2 1 2 2 2 2 4 3 2 2 4 4 4 4 4 4 2 3 5 5 4 2 5 4 2 1 5 7 8 9 8 7 8 6 5 8 7 7 8 8 9 8 9
10 5 4 3 5 8 5 1 4 6 3 3 6 7 7 5 2 3 3 4 3 1 1 1 1 3 3 5 4 4 2 5 3 4 4 4 4 2 3 3 2 0 1 3 2 1 1 1 3 2 2 3 2 2 3 5 5 4 5 4 2 2 5 4 2 1 2 5 6 1 3 3 6 8 8 6 7 9 7 8 9 7 8 9 10 10 9 10
10 6 4 3 5 7 3 2 6 6 1 3 7 9 8 4 1 2 5 3 2 0 1 2 0 1 3 6 6 5 1 4 2 3 5 5 4 3 4 1 3 2 1 5 1 3 1 0 2 1 3 1 2 4 4 6 3 6 5 3 3 5 6 3 1 3 2 3 6 4 2 1 6 8 6 4 5 8 8 9 10 10 11 11 12 11 11 11
11 5 4 4 5 5 1 1 5 4 1 3 8 10 7 2 1 4 5 1 1 1 0 1 1 2 4 6 6 3 1 2 2 4 6 4 3 3 3 0 4 2 1 5 4 4 1 2 5 5 3 3 4 5 5 6 2 6 3 3 5 3 4 3 2 2 2 2 5 5 1 1 5 7 5 3 3 7 8 8 9 10 11 11 11 11 11 10
12 6 3 3 4 4 2 2 3 2 2 7 11 9 4 2 3 5 3 1 0 0 1 2 1 3 5 5 4 4 4 3 2 3 5 3 3 5 2 0 4 4 2 3 2 4 2 1 1 3 3 5 3 3 5 6 5 3 6 5 5 3 2 2 2 2 3 2 6 5 2 3 3 6 5 3 4 6 5 7 7 8 9 9 9 9 9 8
13 8 2 1 2 2 2 1 2 3 6 11 11 6 3 3 4 5 1 1 1 1 2 2 2 3 5 4 2 4 4 4 4 4 4 4 5 7 4 2 4 4 4 5 3 3 3 3 1 1 1 2 2 3 3 1 1 4 4 3 4 4 3 4 3 4 3 3 6 4 1 3 2 7 6 5 6 6 5 7 9 9 8 8 7 7 7 8
13 11 7 2 1 1 1 2 3 6 11 13 8 3 4 4 3 1 1 2 1 1 1 1 2 2 4 3 1 3 3 4 3 4 2 2 3 4 2 1 0 4 4 4 4 5 3 3 3 2 2 2 4 3 5 5 5 4 3 4 4 4 4 3 3 2 1 4 4 2 2 0 5 9 11 11 12 11 9 9 10 10 8 6 6 6 7 7
11 11 9 6 3 2 3 4 5 9 13 11 4 4 6 4 1 2 1 2 0 1 1 1 2 1 2 3 2 3 2 1 2 3 1 1 4 2 3 0 2 2 1 2 3 5 4 4 2 1 3 1 5 2 2 3 3 2 1 3 3 2 3 3 4 3 2 4 4 2 2 3 6 8 11 12 12 12 10 9 9 8 7 6 5 4 4 5
10 10 9 8 6 6 6 6 7 11 11 6 4 5 6 3 1 1 1 2 1 1 1 1 2 3 3 2 1 2 2 1 2 2 1 2 3 1 3 4 2 3 1 1 2 1 1 4 3 3 2 1 4 4 4 3 1 2 2 4 4 3 2 3 3 3 4 4 4 3 1 3 4 5 7 8 9 8 7 7 5 5 5 3 4 4 4 4
8 8 9 8 8 6 6 6 7 10 7 4 5 5 4 2 3 1 2 3 1 1 1 0 2 4 3 2 1 1 2 1 2 3 2 1 1 2 1 2 2 2 3 2 2 1 2 5 5 1 1 3 2 3 4 4 1 3 1 3 1 4 4 2 4 5 3 3 4 3 3 5 4 7 9 7 7 7 7 6 4 3 4 4 5 6 5 5
6 5 7 8 7 5 4 5 7 7 5 5 6 3 2 3 2 2 2 1 2 2 0 2 3 3 3 3 2 3 1 1 2 3 2 1 2 2 2 2 1 2 4 3 1 0 0 5 4 1 1 2 3 2 1 2 1 1 1 1 4 4 4 1 4 3 2 2 4 3 3 5 5 8 9 6 7 8 8 7 5 5 6 6 5 6 5 6
4 3 3 6 6 3 3 4 6 5 4 6 5 1 2 2 2 3 1 0 2 3 3 1 1 1 1 2 3 3 2 1 1 1 2 1 1 2 3 2 1 2 3 3 1 2 1 5 5 2 1 4 2 2 1 1 2 3 2 4 3 1 3 2 2 4 4 2 5 3 5 5 3 5 6 7 8 10 9 7 6 6 6 6 6 6 6 7
1 1 1 5 5 2 3 5 5 4 5 6 3 2 1 1 2 2 0 0 0 2 4 1 1 1 1 0 2 3 1 1 2 1 1 1 1 3 5 2 1 1 2 2 1 1 2 2 6 0 1 4 2 3 3 4 2 3 3 3 0 1 1 1 1 1 3 4 5 5 7 5 4 5 6 7 7 8 9 7 6 7 6 5 7 7 7 7
0 1 2 4 4 2 4 4 3 5 6 4 1 2 1 1 1 1 1 1 1 2 2 2 1 1 1 2 2 3 1 1 1 1 0 1 1 2 4 3 1 1 1 3 2 1 2 1 5 3 0 1 3 2 2 2 2 2 2 2 1 3 3 2 2 2 2 3 5 5 5 4 5 6 5 7 7 6 8 7 5 7 7 6 6 6 7 7
1 2 1 3 3 3 4 3 3 5 5 2 2 2 1 1 1 1 1 1 1 1 1 2 1 1 2 2 1 1 0 2 2 0 1 2 1 1 2 3 3 3 1 4 2 1 1 2 4 5 3 1 1 3 5 5 3 1 1 1 1 1 1 1 2 3 4 2 3 4 6 5 5 3 3 8 9 7 7 7 6 7 6 7 6 7 7 7
1 3 2 3 3 3 3 4 3 3 3 1 1 1 0 1 1 1 1 1 1 1 1 3 3 2 2 1 1 1 1 1 3 2 2 2 1 1 1 3 5 5 2 4 1 1 1 2 4 4 3 3 5 5 6 7 6 5 4 5 4 3 3 1 4 2 2 3 4 3 9 9 4 3 5 7 7 7 6 5 6 7 8 8 8 8 8 8
3 2 3 2 1 1 4 4 2 2 4 1 1 0 1 2 2 0 1 1 1 1 1 2 2 2 1 1 2 2 1 1 3 3 3 3 3 3 1 2 5 6 4 2 3 3 2 2 2 5 6 7 6 2 1 3 4 5 4 4 4 4 5 4 4 4 1 3 3 1 6 9 4 3 4 3 4 5 5 6 7 8 8 8 8 9 9 8
3 1 1 3 1 1 5 3 2 3 2 1 1 1 0 1 2 1 0 1 1 1 1 1 1 1 1 2 1 2 2 2 4 4 3 3 2 2 3 2 5 5 3 1 2 1 1 2 1 5 6 5 3 3 3 2 3 2 3 3 4 3 4 5 5 3 1 5 3 1 4 8 5 0 2 3 4 5 6 7 7 8 8 8 9 9 9 9
2 2 1 4 2 2 3 2 1 1 1 1 1 1 1 0 2 3 2 2 1 2 1 1 2 1 1 1 2 2 2 1 2 3 2 2 1 2 4 4 3 4 1 2 2 1 1 1 0 3 7 7 5 5 5 4 1 2 4 2 5 4 2 1 1 2 1 6 5 3 6 9 4 1 6 8 9 10 10 9 9 8 8 8 8 8 8 9
2 1 2 3 4 4 2 4 5 4 2 2 1 1 1 1 1 3 3 2 2 3 2 2 1 1 1 1 1 2 2 2 3 2 1 1 2 2 3 5 2 2 1 1 1 1 1 2 2 1 4 5 6 6 3 2 2 3 2 3 5 6 5 3 1 2 4 5 3 5 8 12 9 7 9 9 10 13 15 13 11 9 9 9 8 8 9 9
2 1 2 4 5 5 2 1 5 5 4 4 1 2 3 1 2 1 2 1 2 2 2 1 0 2 1 1 0 3 3 3 3 2 1 3 3 2 2 4 3 2 1 1 1 3 1 2 3 6 7 7 9 9 2 3 5 6 7 9 8 6 7 5 1 4 6 3 4 10 11 12 14 13 12 12 12 14 14 12 11 10 9 9 9 9 9 9
1 1 1 1 3 3 3 3 4 4 3 4 2 2 4 3 1 1 1 1 1 1 1 1 2 2 3 3 2 3 3 2 2 2 3 5 3 2 2 2 3 1 1 0 0 3 2 3 5 8 11 11 13 13 6 5 8 10 11 15 13 7 7 7 8 9 4 2 9 16 12 11 13 11 13 16 15 13 13 11 9 8 8 9 10 11 12 12
1 1 2 1 1 1 0 1 3 4 2 3 2 2 4 3 2 2 1 1 1 0 1 1 3 6 7 5 3 2 2 1 2 4 3 3 2 1 2 1 1 1 1 2 2 3 3 4 5 6 9 11 12 14 10 7 10 10 11 15 16 11 8 10 14 15 7 6 14 17 16 17 16 12 13 14 11 10 10 9 8 8 9 11 14 15 14 12
1 1 1 1 0 3 2 1 3 5 4 3 1 2 5 5 5 4 2 2 2 3 3 3 7 8 8 6 4 3 3 3 3 5 3 2 2 1 1 1 0 2 2 2 1 2 4 3 4 3 7 9 9 13 12 10 9 9 11 14 14 14 12 11 14 15 11 13 17 17 18 20 15 10 10 9 8 8 7 8 9 10 12 14 15 14 11 11
1 1 1 2 2 1 1 1 3 4 2 1 0 3 5 6 6 4 3 5 2 3 4 5 8 8 8 8 6 6 8 7 4 5 5 3 2 2 3 3 3 2 1 3 1 0 2 2 2 1 5 7 7 9 9 6 6 9 13 14 12 12 10 7 8 9 8 10 13 13 14 14 8 6 7 7 8 8 9 11 11 11 13 14 12 11 11 12
2 2 3 4 2 0 0 0 3 4 1 1 3 4 3 6 8 5 3 6 8 6 7 9 8 4 5 7 9 12 11 7 6 7 8 6 4 4 3 2 6 5 2 3 2 1 2 2 3 5 5 6 3 3 7 7 8 11 13 12 9 5 4 4 4 5 5 6 8 9 7 6 5 6 8 9 9 11 12 12 11 11 13 11 10 10 12 13
3 1 2 4 1 1 2 1 1 2 2 3 5 4 3 5 7 6 2 3 5 6 8 10 7 3 3 7 11 12 7 5 7 7 6 6 5 4 3 3 7 7 5 5 2 2 4 2 2 3 3 6 3 5 9 8 8 8 7 6 4 2 0 4 4 5 6 5 4 6 5 4 6 8 10 11 12 12 11 10 10 11 10 9 10 11 12 13
Wind_Direction
43 67 24 334 322 327 329 327 321 309 304 294 288 285 283 281 280 278 274 274 271 271 271 270 259 241 225 215 229 219 220 147 56 51 56 6 344 338 333 326 322 321 321 321 310 327 335 319 273 251 229 223 197 216 227 210 133 74 103 163 255 242 237 280 311 303 127 196 215 199 182 127 162 263 160 67 64 90 87 82 70 55 57 75 75 118 143 153
23 4 360 348 339 335 328 320 319 313 307 298 294 289 286 282 278 274 270 267 262 264 264 262 247 219 201 198 232 235 228 171 65 49 23 353 346 340 334 335 332 327 327 322 319 342 342 330 316 302 211 186 246 213 190 210 141 123 149 170 239 217 203 332 350 328 4 277 242 205 88 122 169 185 159 113 118 124 99 99 94 78 75 85 92 118 139 150
48 9 12 10 356 349 338 331 335 327 320 309 305 300 294 288 283 282 274 262 254 255 256 251 224 201 188 198 232 241 277 285 53 18 356 348 344 337 339 347 346 341 338 331 341 339 318 304 310 316 176 229 261 217 183 267 218 174 150 179 247 196 165 5 43 342 304 302 304 105 65 91 154 172 158 158 155 167 161 157 141 139 146 126 122 135 144 150
51 32 24 19 13 10 358 350 348 342 341 337 338 333 322 317 313 315 301 270 246 234 240 236 194 187 186 199 230 235 323 5 57 340 344 344 342 342 353 2 360 351 342 334 323 316 300 294 299 299 147 265 282 78 175 226 205 178 157 182 239 169 148 306 44 320 290 301 239 156 108 87 253 156 108 132 145 220 210 184 202 178 160 146 147 153 155 157
54 42 32 27 24 19 10 5 2 2 3 353 346 337 332 331 330 333 330 291 227 210 212 196 180 187 187 201 223 228 25 33 333 346 344 343 350 356 6 8 10 360 349 348 319 304 290 276 289 332 31 266 303 358 224 216 174 166 173 152 222 125 134 288 320 335 313 331 62 97 116 172 261 7 67 118 161 228 213 288 249 164 151 149 151 157 164 168
55 41 36 29 24 18 13 14 14 17 10 353 343 338 339 335 335 338 349 354 183 176 173 176 182 187 189 201 210 213 88 109 329 352 343 344 2 11 11 2 5 0 345 339 323 315 296 267 253 336 305 248 265 250 251 239 165 178 221 98 45 73 118 281 332 357 11 52 58 73 201 277 37 8 70 123 184 206 191 332 76 136 143 147 149 159 169 175
50 38 30 21 16 11 7 12 16 17 7 355 349 350 351 345 344 344 357 51 150 151 157 169 175 178 178 176 171 151 102 133 340 351 340 348 11 11 6 359 1 355 337 325 324 328 315 337 262 226 220 271 258 248 272 298 129 142 203 58 66 83 99 119 22 25 45 68 51 286 56 26 32 230 353 172 190 176 152 60 91 130 141 145 152 165 173 178
38 26 18 12 8 4 2 7 12 13 4 357 360 2 359 357 355 349 8 106 134 139 154 164 168 167 164 158 137 66 45 325 341 350 339 349 13 6 357 359 7 358 347 324 320 350 355 4 347 272 344 279 266 312 321 1 33 80 105 196 94 87 98 108 71 43 51 65 346 6 39 212 174 158 301 230 184 169 142 100 99 127 141 153 163 171 175 180
26 14 7 4 360 358 359 3 10 11 2 359 9 12 12 17 16 20 84 122 129 139 156 161 168 164 162 159 95 61 349 336 347 351 343 347 5 1 359 12 16 7 0 346 360 27 30 13 352 12 322 284 353 9 356 29 360 64 120 123 100 116 137 118 68 43 44 8 14 21 320 245 183 146 278 218 166 162 139 124 129 133 153 171 169 175 179 181
345 351 356 355 353 354 356 360 5 6 1 5 18 23 31 45 63 88 111 123 129 146 155 147 149 139 144 328 59 77 334 347 1 355 345 347 355 352 2 24 21 11 3 5 39 40 38 359 315 305 253 286 25 9 23 74 192 128 95 96 125 151 169 123 115 94 84 360 17 28 303 273 217 175 273 207 152 156 143 151 170 156 177 187 177 184 180 185
307 331 341 343 346 348 351 356 0 5 7 13 25 33 45 61 82 103 114 121 129 137 135 130 122 79 54 51 83 92 344 3 13 357 343 343 353 347 2 25 19 10 7 22 49 34 20 343 328 349 11 348 23 9 25 95 157 125 103 74 114 128 70 91 134 210 107 355 347 46 296 286 71 263 240 187 159 160 156 168 180 177 198 199 193 194 183 194
342 325 322 329 336 339 347 352 358 8 18 25 33 45 54 67 90 108 114 117 122 130 135 126 90 37 66 69 81 50 8 26 12 355 351 350 354 348 5 23 18 13 11 21 27 19 17 344 356 42 305 148 54 17 359 297 74 131 109 58 306 34 18 271 178 219 82 323 292 56 317 299 202 241 231 164 157 161 162 174 186 192 201 201 198 197 197 206
355 339 321 321 327 330 343 349 355 15 44 52 52 58 63 79 97 113 118 118 125 136 148 141 5 7 67 71 44 35 28 27 7 359 7 3 359 360 7 9 4 9 15 15 357 2 14 345 10 90 195 83 110 281 351 334 56 113 67 129 306 11 328 276 268 26 63 326 315 50 312 287 255 249 214 158 161 160 176 192 195 200 200 199 197 196 206 212
360 343 323 317 322 327 338 344 354 34 74 72 67 72 85 96 98 104 106 103 113 128 146 20 350 24 68 126 204 48 30 17 11 9 9 359 358 3 357 357 348 347 358 352 331 340 350 336 6 85 44 76 138 323 21 358 46 45 313 344 18 359 292 300 342 38 40 298 12 69 257 268 278 266 205 179 174 168 193 206 199 204 203 198 198 198 207 212
15 359 338 321 317 320 330 342 11 65 84 79 78 92 111 109 101 97 89 87 95 82 44 8 339 34 74 81 212 40 17 11 13 14 6 351 351 350 342 346 333 319 316 317 323 326 327 332 12 84 354 14 53 33 12 344 2 49 2 317 331 188 273 308 329 64 64 289 11 94 257 269 273 259 204 185 184 184 204 213 205 207 205 201 201 201 205 213
31 25 8 341 315 316 333 3 47 85 92 90 89 97 119 120 106 88 60 62 90 54 38 13 339 99 97 354 293 17 5 2 3 5 2 349 345 343 339 336 323 312 290 285 302 308 313 340 60 95 37 17 31 37 26 15 349 8 79 278 308 4 313 312 320 356 35 315 314 158 259 274 270 258 206 186 193 198 211 222 213 210 209 205 202 202 205 209
21 24 16 2 323 323 354 32 85 107 103 101 97 93 100 100 84 67 32 37 81 61 51 22 13 86 89 353 347 351 337 336 347 355 358 356 347 341 343 338 326 332 315 290 288 291 304 357 74 66 51 28 9 45 41 10 325 334 23 334 292 316 328 308 299 324 356 338 271 244 255 264 267 265 229 207 201 203 217 225 220 213 211 209 204 204 206 206
346 353 7 12 344 344 9 78 118 121 112 107 105 99 96 87 77 75 54 52 64 23 32 10 26 78 18 350 351 320 318 317 343 359 360 3 350 332 335 303 293 328 338 325 308 317 338 9 59 56 32 19 18 57 75 259 246 285 315 338 302 300 318 296 273 307 355 335 275 276 271 271 274 269 245 223 202 207 223 224 224 220 213 211 207 207 209 208
353 339 2 25 65 87 38 120 136 135 124 114 114 110 101 86 74 65 52 56 60 29 40 330 12 122 252 326 321 324 320 298 336 2 4 2 344 333 334 291 274 334 6 15 356 8 44 26 44 53 1 357 18 72 131 219 228 246 263 252 276 290 294 280 264 245 331 314 276 264 266 277 284 281 266 240 204 211 229 228 229 229 219 213 210 212 211 212
17 13 13 20 79 136 100 129 143 139 125 114 115 109 87 63 50 35 35 47 62 108 141 255 341 101 284 302 324 339 334 275 343 5 4 355 340 347 0 337 356 38 30 54 326 3 81 62 50 121 233 297 304 265 170 242 273 279 293 293 276 282 284 280 272 257 298 320 266 254 281 283 283 282 276 251 207 215 230 231 231 229 225 217 212 216 213 217
14 15 8 8 97 143 137 140 140 133 121 101 85 72 94 91 52 254 17 32 3 20 76 248 102 87 340 281 331 348 359 317 352 4 2 356 353 11 354 6 55 34 347 291 316 10 66 77 72 197 214 254 274 263 278 311 315 322 303 302 303 285 272 277 264 256 329 2 278 280 301 288 282 282 278 253 207 221 224 221 228 225 223 223 216 219 218 221
7 4 4 8 124 153 158 153 145 139 125 77 41 22 132 144 141 154 129 82 343 358 28 29 67 55 338 356 359 1 67 23 339 350 359 0 20 33 338 31 67 51 343 4 32 27 46 94 240 261 273 1 304 281 9 348 315 313 293 304 300 282 288 298 294 292 18 10 289 303 307 287 286 286 283 256 218 228 220 213 221 217 217 223 220 221 220 221
1 357 3 9 138 164 175 170 164 171 182 30 4 348 76 119 143 143 103 96 307 336 27 36 51 11 342 19 10 11 66 35 332 324 352 1 14 33 41 47 58 56 12 29 93 97 67 238 238 268 4 30 342 352 43 24 357 326 291 283 280 295 1 301 302 325 322 273 263 291 299 283 287 293 290 265 226 235 225 214 224 215 213 220 219 220 215 214
0 355 360 14 128 165 181 187 189 209 249 294 342 348 100 120 134 133 85 90 60 305 309 294 125 58 342 354 359 8 82 47 344 315 350 11 1 5 62 73 60 43 13 59 102 108 163 237 224 1 340 58 358 358 41 40 355 316 228 187 247 284 269 243 287 324 319 296 257 293 311 286 290 303 297 301 270 252 225 206 228 228 223 228 226 225 219 214
5 358 2 32 122 157 170 184 203 223 238 224 244 250 138 136 131 65 71 77 359 297 317 307 160 30 317 335 344 351 126 40 330 311 349 28 20 6 44 70 78 41 350 78 91 89 225 241 147 34 344 22 34 342 38 77 354 318 250 197 204 231 261 271 310 340 343 330 319 25 359 295 298 305 283 300 306 272 251 198 225 234 232 233 234 231 225 221
10 9 19 46 126 148 149 160 194 194 195 207 217 203 167 158 115 36 83 65 340 288 342 306 194 353 332 343 336 147 96 345 277 318 359 37 36 89 60 344 65 88 263 90 85 97 231 240 89 79 349 4 10 294 248 110 60 318 259 204 192 209 284 295 324 358 358 291 287 38 41 272 302 303 279 289 287 274 287 254 241 244 239 233 234 233 228 225
15 24 40 62 131 144 138 129 175 168 169 212 210 193 176 163 123 38 68 46 335 269 31 278 217 11 332 338 353 117 98 306 302 346 3 30 3 80 82 1 39 346 250 84 47 291 185 30 17 32 44 13 358 268 237 121 97 278 241 178 187 259 275 278 313 295 238 280 300 293 166 238 297 283 275 297 290 284 289 271 262 254 243 239 238 236 232 227
19 33 55 84 144 151 118 91 167 169 185 215 194 183 172 160 189 41 79 74 314 105 60 290 288 16 328 354 25 102 199 300 35 336 332 14 357 49 68 28 136 213 280 98 122 265 130 152 239 165 72 33 229 229 205 120 109 256 232 194 232 245 245 239 203 250 270 340 320 307 136 185 278 272 293 322 293 291 284 263 259 252 242 239 238 237 234 231
20 35 66 96 149 170 156 140 175 184 269 183 166 167 165 144 45 54 78 125 305 50 161 329 12 319 340 8 16 50 17 360 105 283 324 21 7 50 67 265 129 156 294 106 157 240 208 210 201 150 127 224 232 232 182 136 211 264 290 286 273 255 223 186 166 242 358 22 280 287 83 122 274 273 297 325 271 269 273 264 254 249 245 239 238 238 234 233
22 32 80 112 132 156 172 192 191 197 163 152 153 156 153 91 66 62 53 216 46 334 258 45 16 321 11 34 345 353 33 5 324 319 347 21 3 23 71 199 86 101 335 48 121 237 257 294 191 139 176 200 207 250 202 180 222 313 4 332 315 348 100 112 133 110 44 329 260 267 110 100 301 278 254 250 233 212 237 284 278 267 263 249 243 242 236 233
26 28 47 150 145 148 162 171 187 182 158 152 153 143 89 41 60 86 111 238 97 323 340 14 341 350 26 50 324 338 16 338 332 23 10 2 6 7 33 31 36 60 7 358 351 302 330 349 280 234 232 140 78 325 288 217 62 37 24 354 342 349 34 29 8 56 67 273 262 265 71 111 243 271 254 250 262 233 230 271 276 275 270 254 251 251 241 235
30 30 35 46 174 183 161 156 164 160 156 155 151 96 74 48 24 118 234 320 359 302 5 320 303 3 15 30 2 320 341 328 347 61 34 17 43 3 17 101 92 36 2 327 335 328 304 261 253 299 317 121 92 355 330 2 40 48 23 32 21 346 8 4 327 6 196 247 250 195 84 182 235 260 266 269 277 269 253 249 253 258 255 248 255 257 249 238
37 35 40 48 82 130 121 130 147 151 155 155 126 51 78 81 359 217 259 339 283 265 116 163 298 10 36 25 356 307 320 318 352 56 124 91 70 355 324 267 144 86 324 279 349 348 325 302 285 337 305 177 122 113 313 332 28 30 20 83 83 39 9 315 286 306 271 264 265 176 129 281 279 273 256 253 260 258 253 244 231 222 219 232 253 266 273 246
43 40 45 54 73 97 111 119 139 147 149 139 73 53 68 82 229 202 269 258 230 332 87 130 334 14 52 51 297 319 19 307 316 36 25 30 50 351 311 336 34 87 107 60 11 31 8 309 261 184 248 153 140 176 177 165 214 257 192 128 125 143 154 248 245 254 274 283 287 290 192 222 262 279 241 231 249 259 265 259 233 207 214 244 283 298 307 272
40 36 41 50 62 82 106 121 137 145 141 98 62 66 87 194 232 181 230 245 225 6 324 357 52 40 7 334 294 357 48 267 307 16 21 64 104 180 215 308 341 74 96 82 319 172 154 263 254 200 122 133 164 224 154 119 309 271 147 98 146 183 164 205 224 223 261 311 291 283 246 217 231 281 279 275 282 285 287 282 271 266 289 331 315 290 287 274
31 23 31 40 45 67 105 126 137 138 123 79 65 69 179 215 215 168 188 214 166 158 25 2 58 59 336 319 330 349 23 262 313 5 343 195 186 188 173 226 280 83 115 131 240 357 70 275 265 35 8 158 170 221 156 137 248 323 54 202 227 190 135 133 272 285 18 323 262 208 241 283 308 292 296 335 336 319 315 311 300 289 317 339 300 277 280 271
29 20 24 29 30 60 116 136 139 128 90 79 87 161 213 214 184 173 189 46 173 141 100 55 19 70 307 312 310 311 342 312 323 10 314 285 214 173 155 200 240 133 151 138 173 185 146 284 273 167 244 259 187 136 331 291 146 128 197 242 251 98 83 89 288 332 7 280 263 216 219 267 307 284 310 353 344 323 319 325 325 319 333 323 285 278 275 266
43 52 30 21 22 75 132 141 134 104 69 73 96 214 181 170 180 158 127 70 143 86 91 139 207 156 191 246 284 285 316 320 327 2 284 277 257 158 143 174 268 164 174 100 70 200 116 296 292 263 166 285 5 65 335 325 93 135 204 244 51 103 306 19 153 300 316 287 290 266 234 233 226 244 292 314 314 312 314 336 340 312 311 294 275 280 283 282
193 40 10 10 26 95 137 148 122 73 65 74 166 230 156 176 247 106 129 169 110 87 103 197 205 124 205 186 225 272 274 233 290 357 257 237 261 161 145 170 192 162 150 100 126 229 99 128 284 311 101 314 11 69 242 292 27 50 5 339 26 172 190 197 180 176 206 270 300 288 258 238 227 227 257 285 291 292 300 330 324 283 281 275 269 289 302 304
201 60 354 344 38 120 148 131 67 59 70 108 193 197 142 195 250 303 195 164 147 121 153 201 161 127 231 213 205 257 219 193 206 225 250 231 252 248 169 152 143 149 66 51 85 222 59 133 249 297 338 343 282 215 193 184 169 124 67 269 247 222 155 212 238 163 150 212 276 293 281 254 226 231 280 289 293 286 287 312 305 287 292 291 297 318 317 310
68 71 312 330 44 144 137 77 47 74 103 136 172 140 217 167 150 310 300 105 131 181 162 164 161 172 204 201 201 212 210 223 207 207 245 237 233 257 201 142 148 153 95 41 34 227 137 166 230 286 315 260 243 229 193 180 172 160 172 193 189 165 116 60 281 259 145 192 202 246 286 278 236 219 267 276 280 281 288 310 310 308 314 311 316 320 309 302
71 81 296 332 60 154 83 64 360 75 105 141 170 132 175 131 117 256 300 23 74 145 73 119 171 182 176 183 197 185 165 247 214 196 229 229 199 202 249 113 144 141 113 134 231 229 154 130 255 267 260 254 260 266 175 172 158 158 187 190 157 140 134 148 245 262 263 245 204 158 285 284 272 210 217 239 274 295 327 350 339 322 316 313 311 307 301 295
96 158 316 32 59 82 71 64 328 24 64 223 269 322 217 113 114 156 242 10 83 110 30 32 198 200 201 192 161 158 181 216 202 194 230 255 213 218 315 21 131 127 100 158 230 260 143 114 277 273 279 290 326 17 8 27 88 181 240 182 153 172 166 171 197 189 209 256 243 88 279 281 300 318 125 69 10 352 354 352 336 319 311 307 304 303 304 300
126 185 4 38 30 53 85 136 198 56 260 252 24 336 297 93 131 147 182 218 178 145 136 225 225 215 215 157 117 183 213 230 226 226 232 240 252 308 339 7 119 145 146 193 201 248 241 193 173 315 320 325 347 1 343 349 41 224 253 226 201 203 148 138 193 109 295 252 205 169 261 267 261 20 24 18 3 349 340 333 326 319 314 310 307 309 309 309
75 25 320 2 29 65 122 175 154 146 183 155 111 232 233 354 185 164 168 196 195 164 164 238 246 124 137 71 75 237 239 209 231 291 348 251 273 316 351 5 46 160 205 257 148 114 213 204 159 211 288 291 301 307 301 307 282 239 270 285 244 204 182 211 248 158 238 253 174 179 245 264 276 320 351 352 343 335 330 328 326 322 320 319 320 321 318 318
89 23 309 328 11 55 79 149 113 123 164 154 159 223 154 127 283 229 136 169 199 151 142 222 121 83 87 118 172 264 254 218 226 317 329 246 267 303 342 13 56 133 136 5 80 88 82 254 203 201 218 234 258 262 249 28 310 285 292 290 272 225 199 212 212 199 225 278 270 243 246 269 288 311 328 324 328 329 323 324 326 327 329 325 321 318 316 317
108 177 176 277 341 34 16 2 88 113 176 161 147 204 163 148 298 335 37 255 213 136 147 194 158 158 192 180 189 243 237 208 230 261 243 229 241 310 331 24 71 108 115 65 21 95 77 286 237 215 230 242 258 272 308 350 296 278 284 283 277 255 199 199 229 234 231 343 271 265 273 283 286 304 318 318 327 330 325 328 328 320 319 319 320 321 321 326
116 183 162 152 236 161 29 319 124 120 152 153 130 169 161 155 198 204 209 309 327 164 169 219 219 207 198 179 163 212 229 188 225 237 238 233 227 347 351 24 61 9 85 53 352 109 134 264 244 217 246 255 265 280 291 289 273 269 272 274 278 273 226 209 236 245 236 244 260 274 291 291 291 308 317 320 329 324 318 320 313 313 323 327 327 327 330 339
93 87 293 9 156 184 200 257 125 125 142 138 105 184 172 176 214 222 166 92 331 265 184 219 249 223 206 197 165 174 209 204 258 254 213 194 206 166 301 242 66 1 58 92 344 118 138 255 254 236 269 266 260 269 273 272 274 275 268 263 267 270 252 230 243 251 243 246 260 276 287 286 293 312 315 315 314 305 308 317 320 330 334 328 327 331 341 350
130 172 214 46 46 167 225 343 100 122 153 133 211 227 184 178 207 227 166 146 190 251 181 213 244 221 205 202 182 205 214 191 219 242 184 168 238 201 220 214 146 48 43 142 225 288 139 263 286 9 304 280 246 253 267 269 271 280 280 274 269 274 272 253 249 257 254 256 265 275 278 280 294 322 313 304 310 319 325 326 328 332 326 324 334 347 350 347
146 165 149 106 58 311 224 34 113 124 172 239 215 219 207 203 201 194 206 194 180 172 182 205 225 210 189 193 204 232 234 200 212 222 180 178 222 204 215 199 137 134 171 177 185 151 168 259 347 39 336 291 254 299 314 313 297 287 284 282 277 274 283 265 242 241 237 247 273 282 278 280 307 324 315 313 323 327 323 324 328 325 325 336 355 355 344 339
140 125 118 107 94 238 160 159 127 137 203 220 197 193 214 231 205 167 188 248 190 174 191 193 186 163 172 204 221 235 238 217 229 227 188 187 210 197 190 160 137 140 163 174 174 162 158 177 11 50 314 282 306 352 329 325 321 295 273 270 258 162 26 297 279 264 245 229 271 291 286 303 320 323 321 321 325 323 322 328 327 324 334 352 353 342 336 334